KQA508 HKJK-DGAA

Flight info

Callsign KQA508
Flight time 5h 4m
Altitude 36000
Route NAKAT4B NAKAT UL433 NN UL434 AMPIL/N0456F380 UL434 NLY UR984 DLA UP685 ARDEX UA601 TYE/N0404F240 L433 EREKA EREKA1B
Aircraft B738/M-SDE2E3FGHIRWXY/LB1

Departure

Time 2026-04-26 20:34
Airport Jomo Kenyatta International Airport (HKJK)

Arrival

Time 2026-04-27 01:39
Airport Kotoka International Airport (DGAA)
Time Latitude Longitude Altitude Speed Heading
2026-04-26 19:43 -1.33060 36.92306 5316 ft 0 kts 88°
2026-04-26 20:19 -1.33060 36.92293 5313 ft 4 kts 88°
2026-04-26 20:19 -1.33061 36.92267 5313 ft 4 kts 88°
2026-04-26 20:19 -1.33062 36.92245 5313 ft 4 kts 81°
2026-04-26 20:19 -1.33071 36.92223 5313 ft 4 kts 31°
2026-04-26 20:20 -1.33093 36.92219 5315 ft 4 kts 349°
2026-04-26 20:20 -1.33111 36.92223 5320 ft 0 kts 349°
2026-04-26 20:23 -1.33109 36.92222 5320 ft 1 kts 349°
2026-04-26 20:23 -1.33088 36.92219 5314 ft 6 kts 353°
2026-04-26 20:23 -1.33039 36.92217 5318 ft 8 kts
2026-04-26 20:24 -1.32973 36.92227 5323 ft 10 kts 15°
2026-04-26 20:24 -1.32907 36.92255 5319 ft 10 kts 22°
2026-04-26 20:24 -1.32843 36.92241 5318 ft 10 kts 326°
2026-04-26 20:24 -1.32791 36.92197 5322 ft 10 kts 303°
2026-04-26 20:25 -1.32803 36.92135 5324 ft 9 kts 238°
2026-04-26 20:25 -1.32828 36.92100 5322 ft 9 kts 233°
2026-04-26 20:25 -1.32878 36.92032 5325 ft 9 kts 233°
2026-04-26 20:25 -1.32914 36.91983 5326 ft 9 kts 233°
2026-04-26 20:26 -1.32949 36.91935 5332 ft 8 kts 234°
2026-04-26 20:26 -1.32983 36.91888 5333 ft 8 kts 234°
2026-04-26 20:26 -1.33001 36.91838 5332 ft 8 kts 277°
2026-04-26 20:26 -1.32968 36.91798 5336 ft 8 kts 325°
2026-04-26 20:27 -1.32933 36.91773 5336 ft 0 kts 324°
2026-04-26 20:27 -1.32921 36.91765 5338 ft 6 kts 324°
2026-04-26 20:27 -1.32873 36.91731 5338 ft 10 kts 324°
2026-04-26 20:28 -1.32841 36.91708 5337 ft 0 kts 324°
2026-04-26 20:31 -1.32837 36.91705 5335 ft 5 kts 324°
2026-04-26 20:31 -1.32787 36.91668 5336 ft 8 kts 324°
2026-04-26 20:31 -1.32734 36.91667 5339 ft 9 kts 38°
2026-04-26 20:31 -1.32722 36.91684 5334 ft 0 kts 57°
2026-04-26 20:33 -1.32700 36.91718 5333 ft 15 kts 54°
2026-04-26 20:33 -1.32500 36.91991 5322 ft 83 kts 54°
2026-04-26 20:34 -1.32035 36.92628 5315 ft 142 kts 54°
2026-04-26 20:34 -1.31351 36.93554 5376 ft 184 kts 54°
2026-04-26 20:34 -1.30594 36.94620 6117 ft 185 kts 52°
2026-04-26 20:34 -1.29831 36.95623 6972 ft 180 kts 53°
2026-04-26 20:35 -1.29066 36.96601 7608 ft 185 kts 54°
2026-04-26 20:35 -1.28231 36.97708 7822 ft 210 kts 54°
2026-04-26 20:35 -1.27317 36.98932 7996 ft 232 kts 54°
2026-04-26 20:35 -1.26304 37.00291 8153 ft 255 kts 54°
2026-04-26 20:36 -1.25201 37.01770 8344 ft 278 kts 54°
2026-04-26 20:36 -1.24018 37.03355 8949 ft 287 kts 54°
2026-04-26 20:36 -1.22814 37.04968 9682 ft 290 kts 54°
2026-04-26 20:36 -1.21599 37.06597 10412 ft 294 kts 53°
2026-04-26 20:37 -1.20085 37.07948 11071 ft 298 kts 25°
2026-04-26 20:37 -1.18048 37.08320 11780 ft 302 kts 354°
2026-04-26 20:37 -1.16046 37.07720 12450 ft 307 kts 332°
2026-04-26 20:37 -1.14364 37.06378 13092 ft 313 kts 310°
2026-04-26 20:38 -1.13253 37.04501 13753 ft 317 kts 289°
2026-04-26 20:38 -1.12701 37.02384 14383 ft 320 kts 281°
2026-04-26 20:38 -1.12309 37.00178 14977 ft 324 kts 279°
2026-04-26 20:38 -1.11955 36.97926 15502 ft 332 kts 279°
2026-04-26 20:39 -1.11590 36.95595 15627 ft 352 kts 279°
2026-04-26 20:39 -1.11191 36.93111 15769 ft 371 kts 280°
2026-04-26 20:39 -1.10761 36.90511 15905 ft 387 kts 280°
2026-04-26 20:39 -1.10303 36.87812 16208 ft 397 kts 280°
2026-04-26 20:40 -1.09831 36.85075 16740 ft 400 kts 280°
2026-04-26 20:40 -1.09352 36.82324 17286 ft 402 kts 281°
2026-04-26 20:40 -1.08872 36.79592 17793 ft 405 kts 281°
2026-04-26 20:40 -1.08381 36.76804 18273 ft 409 kts 281°
2026-04-26 20:41 -1.07885 36.73996 18709 ft 412 kts 281°
2026-04-26 20:41 -1.07383 36.71158 19129 ft 414 kts 281°
2026-04-26 20:41 -1.06879 36.68308 19531 ft 417 kts 281°
2026-04-26 20:41 -1.06378 36.65474 19919 ft 420 kts 281°
2026-04-26 20:42 -1.05868 36.62589 20298 ft 423 kts 281°
2026-04-26 20:42 -1.05354 36.59682 20663 ft 426 kts 281°
2026-04-26 20:42 -1.04836 36.56752 21017 ft 430 kts 281°
2026-04-26 20:42 -1.04315 36.53801 21390 ft 432 kts 281°
2026-04-26 20:43 -1.03789 36.50827 21767 ft 435 kts 281°
2026-04-26 20:43 -1.03262 36.47848 22135 ft 437 kts 281°
2026-04-26 20:43 -1.02733 36.44852 22544 ft 439 kts 281°
2026-04-26 20:43 -1.02200 36.41836 22896 ft 441 kts 281°
2026-04-26 20:44 -1.01665 36.38807 23231 ft 444 kts 281°
2026-04-26 20:44 -1.01126 36.35761 23565 ft 446 kts 281°
2026-04-26 20:44 -1.00584 36.32698 23861 ft 449 kts 282°
2026-04-26 20:44 -1.00040 36.29618 24134 ft 451 kts 281°
2026-04-26 20:45 -0.99492 36.26520 24417 ft 453 kts 281°
2026-04-26 20:45 -0.98944 36.23421 24711 ft 454 kts 281°
2026-04-26 20:45 -0.98394 36.20310 25027 ft 455 kts 281°
2026-04-26 20:45 -0.97842 36.17184 25298 ft 457 kts 281°
2026-04-26 20:46 -0.97287 36.14049 25550 ft 459 kts 281°
2026-04-26 20:46 -0.96730 36.10901 25805 ft 461 kts 281°
2026-04-26 20:46 -0.96171 36.07739 26058 ft 463 kts 281°
2026-04-26 20:46 -0.95609 36.04565 26314 ft 465 kts 281°
2026-04-26 20:47 -0.95053 36.01420 26556 ft 467 kts 281°
2026-04-26 20:47 -0.94671 35.99257 26718 ft 468 kts 281°
2026-04-26 20:47 -0.93919 35.95009 27044 ft 470 kts 281°
2026-04-26 20:47 -0.93348 35.91779 27276 ft 472 kts 281°
2026-04-26 20:48 -0.92775 35.88544 27504 ft 474 kts 281°
2026-04-26 20:48 -0.92200 35.85293 27692 ft 476 kts 281°
2026-04-26 20:48 -0.91622 35.82025 27891 ft 479 kts 281°
2026-04-26 20:48 -0.91041 35.78745 28128 ft 480 kts 281°
2026-04-26 20:49 -0.90458 35.75450 28358 ft 481 kts 281°
2026-04-26 20:49 -0.89875 35.72151 28543 ft 483 kts 281°
2026-04-26 20:49 -0.89288 35.68835 28715 ft 486 kts 281°
2026-04-26 20:49 -0.88706 35.65550 28934 ft 487 kts 281°
2026-04-26 20:50 -0.88114 35.62204 29137 ft 488 kts 281°
2026-04-26 20:50 -0.87523 35.58865 29353 ft 489 kts 281°
2026-04-26 20:50 -0.86929 35.55511 29542 ft 491 kts 281°
2026-04-26 20:50 -0.86334 35.52146 29723 ft 492 kts 281°
2026-04-26 20:51 -0.85737 35.48773 29919 ft 493 kts 281°
2026-04-26 20:51 -0.85140 35.45402 30212 ft 492 kts 281°
2026-04-26 20:51 -0.84543 35.42027 30491 ft 490 kts 281°
2026-04-26 20:51 -0.83953 35.38694 30755 ft 489 kts 281°
2026-04-26 20:52 -0.83325 35.35373 30989 ft 488 kts 284°
2026-04-26 20:52 -0.82469 35.32083 31201 ft 487 kts 287°
2026-04-26 20:52 -0.81477 35.28834 31460 ft 486 kts 289°
2026-04-26 20:52 -0.80460 35.25655 31726 ft 485 kts 289°
2026-04-26 20:53 -0.79433 35.22442 31979 ft 484 kts 289°
2026-04-26 20:53 -0.78421 35.19210 32214 ft 484 kts 288°
2026-04-26 20:53 -0.77448 35.16029 32456 ft 484 kts 288°
2026-04-26 20:53 -0.76477 35.12799 32716 ft 483 kts 288°
2026-04-26 20:54 -0.75520 35.09587 32991 ft 482 kts 288°
2026-04-26 20:54 -0.74568 35.06377 33226 ft 481 kts 288°
2026-04-26 20:54 -0.73626 35.03198 33466 ft 481 kts 288°
2026-04-26 20:54 -0.72673 34.99989 33740 ft 480 kts 288°
2026-04-26 20:55 -0.71717 34.96771 33996 ft 480 kts 288°
2026-04-26 20:55 -0.70774 34.93598 34122 ft 482 kts 288°
2026-04-26 20:55 -0.69815 34.90376 34311 ft 482 kts 288°
2026-04-26 20:55 -0.68862 34.87175 34581 ft 480 kts 288°
2026-04-26 20:56 -0.67912 34.83982 34869 ft 478 kts 288°
2026-04-26 20:56 -0.66964 34.80794 35101 ft 477 kts 288°
2026-04-26 20:56 -0.66018 34.77617 35311 ft 477 kts 288°
2026-04-26 20:56 -0.65071 34.74435 35516 ft 476 kts 288°
2026-04-26 20:57 -0.64138 34.71300 35699 ft 476 kts 288°
2026-04-26 20:57 -0.63181 34.68084 35884 ft 476 kts 288°
2026-04-26 20:57 -0.62249 34.64954 36060 ft 476 kts 288°
2026-04-26 20:58 -0.60348 34.58564 36061 ft 476 kts 288°
2026-04-26 20:58 -0.58564 34.52260 36044 ft 473 kts 287°
2026-04-26 20:59 -0.56838 34.45906 36049 ft 470 kts 286°
2026-04-26 20:59 -0.55131 34.39652 36043 ft 468 kts 286°
2026-04-26 21:00 -0.53407 34.33380 36046 ft 468 kts 286°
2026-04-26 21:00 -0.51677 34.27107 36047 ft 469 kts 286°
2026-04-26 21:01 -0.49936 34.20792 36037 ft 471 kts 286°
2026-04-26 21:01 -0.48195 34.14473 36035 ft 473 kts 286°
2026-04-26 21:02 -0.46445 34.08119 36032 ft 475 kts 286°
2026-04-26 21:02 -0.44686 34.01732 36035 ft 478 kts 286°
2026-04-26 21:03 -0.42909 33.95321 36020 ft 479 kts 287°
2026-04-26 21:03 -0.40857 33.89018 36016 ft 480 kts 290°
2026-04-26 21:04 -0.38681 33.82700 36018 ft 480 kts 290°
2026-04-26 21:04 -0.36545 33.76370 36013 ft 481 kts 290°
2026-04-26 21:05 -0.34440 33.70035 36012 ft 480 kts 289°
2026-04-26 21:05 -0.32342 33.63702 36011 ft 479 kts 290°
2026-04-26 21:06 -0.30248 33.57390 36010 ft 478 kts 290°
2026-04-26 21:06 -0.28173 33.51140 36010 ft 476 kts 290°
2026-04-26 21:07 -0.26096 33.44851 36004 ft 475 kts 289°
2026-04-26 21:07 -0.24126 33.38548 36004 ft 475 kts 288°
2026-04-26 21:08 -0.22190 33.32247 36006 ft 474 kts 288°
2026-04-26 21:08 -0.20247 33.25960 36009 ft 474 kts 289°
2026-04-26 21:09 -0.18291 33.19664 36011 ft 474 kts 289°
2026-04-26 21:09 -0.16341 33.13394 36008 ft 474 kts 289°
2026-04-26 21:10 -0.14711 33.08155 36008 ft 475 kts 289°
2026-04-26 21:10 -0.12748 33.01846 36012 ft 476 kts 289°
2026-04-26 21:11 -0.10780 32.95516 36011 ft 477 kts 289°
2026-04-26 21:11 -0.08807 32.89172 36031 ft 478 kts 289°
2026-04-26 21:12 -0.06834 32.82826 36058 ft 478 kts 289°
2026-04-26 21:12 -0.04871 32.76515 36054 ft 479 kts 289°
2026-04-26 21:13 -0.02893 32.70151 36084 ft 479 kts 289°
2026-04-26 21:13 -0.00915 32.63790 36082 ft 479 kts 289°
2026-04-26 21:14 0.01061 32.57438 36118 ft 479 kts 289°
2026-04-26 21:14 0.03038 32.51078 36134 ft 479 kts 289°
2026-04-26 21:15 0.04978 32.44752 36129 ft 479 kts 285°
2026-04-26 21:15 0.05818 32.38142 36142 ft 481 kts 274°
2026-04-26 21:16 0.06168 32.31453 36137 ft 482 kts 274°
2026-04-26 21:16 0.06545 32.24769 36132 ft 482 kts 275°
2026-04-26 21:17 0.06969 32.18077 36132 ft 483 kts 275°
2026-04-26 21:17 0.07409 32.11380 36132 ft 483 kts 275°
2026-04-26 21:18 0.07849 32.04674 36132 ft 483 kts 275°
2026-04-26 21:18 0.08283 31.98017 36125 ft 483 kts 275°
2026-04-26 21:19 0.08719 31.91318 36124 ft 483 kts 275°
2026-04-26 21:19 0.09155 31.84612 36112 ft 483 kts 275°
2026-04-26 21:20 0.09592 31.77912 36119 ft 483 kts 275°
2026-04-26 21:20 0.10027 31.71223 36108 ft 482 kts 275°
2026-04-26 21:21 0.10457 31.64575 36110 ft 482 kts 275°
2026-04-26 21:21 0.10885 31.57885 36100 ft 482 kts 275°
2026-04-26 21:22 0.11312 31.51210 36094 ft 481 kts 275°
2026-04-26 21:22 0.11740 31.44539 36094 ft 481 kts 275°
2026-04-26 21:23 0.12381 31.34541 36084 ft 480 kts 275°
2026-04-26 21:23 0.12817 31.27885 36072 ft 480 kts 275°
2026-04-26 21:24 0.13252 31.21273 36085 ft 479 kts 275°
2026-04-26 21:24 0.13689 31.14614 36071 ft 479 kts 275°
2026-04-26 21:25 0.14124 31.07980 36077 ft 479 kts 275°
2026-04-26 21:25 0.14560 31.01335 36067 ft 479 kts 275°
2026-04-26 21:26 0.14995 30.94693 36063 ft 479 kts 275°
2026-04-26 21:26 0.15428 30.88078 36060 ft 479 kts 275°
2026-04-26 21:27 0.15864 30.81427 36062 ft 479 kts 275°
2026-04-26 21:27 0.16299 30.74781 36060 ft 479 kts 275°
2026-04-26 21:28 0.16732 30.68171 36069 ft 479 kts 275°
2026-04-26 21:28 0.17168 30.61522 36073 ft 479 kts 275°
2026-04-26 21:29 0.17584 30.54872 36075 ft 479 kts 275°
2026-04-26 21:29 0.17962 30.48219 36076 ft 480 kts 275°
2026-04-26 21:30 0.18338 30.41562 36080 ft 480 kts 275°
2026-04-26 21:30 0.18720 30.34909 36086 ft 479 kts 275°
2026-04-26 21:31 0.19104 30.28252 36091 ft 479 kts 275°
2026-04-26 21:31 0.19485 30.21650 36092 ft 479 kts 275°
2026-04-26 21:32 0.19869 30.15009 36108 ft 479 kts 275°
2026-04-26 21:32 0.20253 30.08358 36113 ft 478 kts 275°
2026-04-26 21:33 0.20636 30.01722 36119 ft 478 kts 275°
2026-04-26 21:33 0.21018 29.95094 36116 ft 477 kts 275°
2026-04-26 21:34 0.21399 29.88519 36113 ft 477 kts 275°
2026-04-26 21:34 0.21799 29.81912 36105 ft 476 kts 275°
2026-04-26 21:35 0.22205 29.75307 36113 ft 475 kts 275°
2026-04-26 21:35 0.22608 29.68707 36100 ft 475 kts 275°
2026-04-26 21:36 0.22941 29.63225 36105 ft 475 kts 275°
2026-04-26 21:36 0.23407 29.55558 36096 ft 476 kts 275°
2026-04-26 21:37 0.23808 29.48949 36095 ft 476 kts 274°
2026-04-26 21:37 0.24210 29.42339 36095 ft 477 kts 274°
2026-04-26 21:38 0.24722 29.35729 36086 ft 477 kts 276°
2026-04-26 21:38 0.25189 29.29107 36091 ft 478 kts 274°
2026-04-26 21:39 0.25569 29.22467 36082 ft 478 kts 274°
2026-04-26 21:39 0.25950 29.15876 36082 ft 478 kts 274°
2026-04-26 21:40 0.26351 29.09217 36076 ft 478 kts 274°
2026-04-26 21:40 0.26758 29.02573 36065 ft 478 kts 274°
2026-04-26 21:41 0.27165 28.95940 36056 ft 478 kts 274°
2026-04-26 21:41 0.27571 28.89316 36051 ft 477 kts 274°
2026-04-26 21:42 0.27974 28.82736 36048 ft 477 kts 274°
2026-04-26 21:42 0.28378 28.76123 36039 ft 476 kts 274°
2026-04-26 21:43 0.28782 28.69521 36042 ft 475 kts 274°
2026-04-26 21:43 0.29183 28.62972 36033 ft 474 kts 274°
2026-04-26 21:44 0.29586 28.56386 36036 ft 474 kts 274°
2026-04-26 21:44 0.29988 28.49813 36031 ft 474 kts 274°
2026-04-26 21:45 0.30390 28.43239 36031 ft 474 kts 274°
2026-04-26 21:45 0.30793 28.36655 36021 ft 474 kts 274°
2026-04-26 21:46 0.31195 28.30075 36019 ft 475 kts 274°
2026-04-26 21:46 0.31595 28.23529 36020 ft 475 kts 274°
2026-04-26 21:47 0.31998 28.16939 36013 ft 476 kts 274°
2026-04-26 21:47 0.32402 28.10333 36012 ft 477 kts 274°
2026-04-26 21:48 0.32807 28.03710 36000 ft 477 kts 274°
2026-04-26 21:48 0.33212 27.97078 36010 ft 478 kts 274°
2026-04-26 21:49 0.33619 27.90444 36007 ft 479 kts 274°
2026-04-26 21:49 0.34029 27.83791 35997 ft 480 kts 274°
2026-04-26 21:50 0.34371 27.78262 36008 ft 480 kts 274°
2026-04-26 21:50 0.34852 27.70464 36004 ft 481 kts 274°
2026-04-26 21:51 0.35262 27.63817 36004 ft 482 kts 274°
2026-04-26 21:51 0.35675 27.57124 36003 ft 483 kts 274°
2026-04-26 21:52 0.36088 27.50424 36000 ft 483 kts 274°
2026-04-26 21:52 0.36501 27.43714 35997 ft 483 kts 274°
2026-04-26 21:53 0.36914 27.37006 35996 ft 483 kts 274°
2026-04-26 21:53 0.37327 27.30307 35996 ft 483 kts 274°
2026-04-26 21:54 0.37737 27.23657 35997 ft 482 kts 274°
2026-04-26 21:54 0.38149 27.16971 35991 ft 482 kts 274°
2026-04-26 21:55 0.38561 27.10284 35993 ft 481 kts 274°
2026-04-26 21:55 0.38972 27.03603 35990 ft 481 kts 274°
2026-04-26 21:56 0.39383 26.96930 35992 ft 480 kts 274°
2026-04-26 21:56 0.39791 26.90299 35991 ft 480 kts 274°
2026-04-26 21:57 0.40201 26.83644 35989 ft 480 kts 274°
2026-04-26 21:57 0.40611 26.76985 35989 ft 479 kts 274°
2026-04-26 21:58 0.41020 26.70338 35986 ft 479 kts 274°
2026-04-26 21:58 0.41429 26.63691 35987 ft 479 kts 274°
2026-04-26 21:59 0.41838 26.57051 35983 ft 479 kts 274°
2026-04-26 21:59 0.42178 26.51516 35988 ft 479 kts 274°
2026-04-26 22:00 0.42587 26.44862 35981 ft 479 kts 275°
2026-04-26 22:00 0.42996 26.38217 35984 ft 479 kts 275°
2026-04-26 22:01 0.43404 26.31573 35983 ft 479 kts 275°
2026-04-26 22:01 0.43810 26.24967 35981 ft 479 kts 275°
2026-04-26 22:02 0.44219 26.18317 35980 ft 479 kts 275°
2026-04-26 22:02 0.44631 26.11671 35979 ft 478 kts 275°
2026-04-26 22:03 0.45044 26.05036 35974 ft 478 kts 275°
2026-04-26 22:03 0.45459 25.98397 35975 ft 478 kts 275°
2026-04-26 22:04 0.45869 25.91806 35981 ft 478 kts 275°
2026-04-26 22:04 0.46281 25.85178 35976 ft 477 kts 275°
2026-04-26 22:05 0.46693 25.78553 35974 ft 477 kts 275°
2026-04-26 22:05 0.47105 25.71939 35974 ft 477 kts 275°
2026-04-26 22:06 0.47516 25.65325 35973 ft 476 kts 275°
2026-04-26 22:06 0.47925 25.58756 35972 ft 476 kts 275°
2026-04-26 22:07 0.48335 25.52150 35969 ft 476 kts 275°
2026-04-26 22:07 0.48745 25.45553 35969 ft 476 kts 275°
2026-04-26 22:08 0.49155 25.38959 35970 ft 475 kts 275°
2026-04-26 22:08 0.49580 25.32362 35967 ft 475 kts 277°
2026-04-26 22:09 0.50873 25.25928 35974 ft 472 kts 286°
2026-04-26 22:09 0.52512 25.19618 35971 ft 472 kts 286°
2026-04-26 22:10 0.54130 25.13265 35970 ft 472 kts 285°
2026-04-26 22:10 0.55701 25.06900 35971 ft 472 kts 285°
2026-04-26 22:11 0.57258 25.00520 35968 ft 472 kts 285°
2026-04-26 22:11 0.58813 24.94150 35970 ft 472 kts 285°
2026-04-26 22:12 0.60370 24.87779 35969 ft 472 kts 285°
2026-04-26 22:12 0.61930 24.81401 35970 ft 472 kts 285°
2026-04-26 22:13 0.63479 24.75070 35965 ft 472 kts 285°
2026-04-26 22:13 0.65038 24.68694 35964 ft 472 kts 285°
2026-04-26 22:14 0.66597 24.62316 35967 ft 472 kts 285°
2026-04-26 22:14 0.68156 24.55937 35969 ft 473 kts 285°
2026-04-26 22:15 0.69727 24.49544 35964 ft 473 kts 285°
2026-04-26 22:15 0.71313 24.43168 35964 ft 473 kts 285°
2026-04-26 22:16 0.72891 24.36827 35966 ft 473 kts 285°
2026-04-26 22:16 0.74476 24.30452 35966 ft 473 kts 285°
2026-04-26 22:17 0.76059 24.24077 35961 ft 472 kts 285°
2026-04-26 22:17 0.77642 24.17700 35962 ft 472 kts 285°
2026-04-26 22:18 0.79224 24.11325 35961 ft 472 kts 285°
2026-04-26 22:18 0.80805 24.04957 35960 ft 471 kts 284°
2026-04-26 22:19 0.82371 23.98647 35960 ft 471 kts 284°
2026-04-26 22:19 0.83945 23.92305 35960 ft 470 kts 284°
2026-04-26 22:20 0.85518 23.85964 35961 ft 469 kts 284°
2026-04-26 22:20 0.87088 23.79639 35962 ft 469 kts 284°
2026-04-26 22:21 0.88657 23.73313 35956 ft 468 kts 285°
2026-04-26 22:21 0.90226 23.66989 35961 ft 468 kts 285°
2026-04-26 22:22 0.91794 23.60672 35961 ft 468 kts 285°
2026-04-26 22:22 0.93351 23.54394 35960 ft 469 kts 285°
2026-04-26 22:23 0.94922 23.48061 35965 ft 469 kts 285°
2026-04-26 22:23 0.96492 23.41729 35962 ft 470 kts 285°
2026-04-26 22:24 0.98068 23.35377 35964 ft 471 kts 285°
2026-04-26 22:24 0.99646 23.29012 35969 ft 472 kts 285°
2026-04-26 22:25 1.01229 23.22630 35969 ft 473 kts 285°
2026-04-26 22:25 1.02802 23.16284 35968 ft 474 kts 285°
2026-04-26 22:26 1.04393 23.09868 35957 ft 475 kts 285°
2026-04-26 22:26 1.05984 23.03450 35969 ft 475 kts 284°
2026-04-26 22:27 1.07575 22.97030 35968 ft 476 kts 284°
2026-04-26 22:27 1.09155 22.90656 35965 ft 476 kts 284°
2026-04-26 22:28 1.10744 22.84241 35960 ft 475 kts 284°
2026-04-26 22:28 1.12334 22.77825 35956 ft 475 kts 284°
2026-04-26 22:29 1.13920 22.71422 35962 ft 474 kts 284°
2026-04-26 22:29 1.15506 22.65021 35962 ft 474 kts 284°
2026-04-26 22:30 1.17088 22.58635 35960 ft 473 kts 284°
2026-04-26 22:30 1.18670 22.52251 35962 ft 473 kts 284°
2026-04-26 22:31 1.20239 22.45912 35960 ft 473 kts 284°
2026-04-26 22:31 1.21819 22.39533 35959 ft 473 kts 285°
2026-04-26 22:32 1.23401 22.33145 35962 ft 472 kts 285°
2026-04-26 22:32 1.24980 22.26766 35962 ft 472 kts 285°
2026-04-26 22:33 1.27345 22.17207 35959 ft 472 kts 285°
2026-04-26 22:34 1.28911 22.10868 35957 ft 472 kts 285°
2026-04-26 22:34 1.30484 22.04491 35958 ft 472 kts 285°
2026-04-26 22:35 1.32056 21.98120 35960 ft 472 kts 285°
2026-04-26 22:35 1.33626 21.91752 35955 ft 472 kts 285°
2026-04-26 22:36 1.35199 21.85375 35958 ft 471 kts 285°
2026-04-26 22:36 1.36759 21.79049 35983 ft 471 kts 284°
2026-04-26 22:37 1.38330 21.72678 35960 ft 471 kts 284°
2026-04-26 22:37 1.39897 21.66321 35953 ft 471 kts 284°
2026-04-26 22:38 1.41466 21.59956 35957 ft 471 kts 284°
2026-04-26 22:38 1.43035 21.53589 35950 ft 471 kts 284°
2026-04-26 22:39 1.44599 21.47227 35954 ft 471 kts 284°
2026-04-26 22:39 1.46155 21.40860 35954 ft 472 kts 284°
2026-04-26 22:40 1.47702 21.34531 35955 ft 472 kts 284°
2026-04-26 22:40 1.49260 21.28155 35953 ft 472 kts 284°
2026-04-26 22:41 1.50821 21.21769 35957 ft 473 kts 284°
2026-04-26 22:41 1.52381 21.15384 35953 ft 473 kts 284°
2026-04-26 22:42 1.53946 21.08983 35954 ft 473 kts 284°
2026-04-26 22:42 1.55508 21.02588 35953 ft 474 kts 284°
2026-04-26 22:43 1.57062 20.96227 35954 ft 474 kts 284°
2026-04-26 22:43 1.58626 20.89824 35953 ft 474 kts 284°
2026-04-26 22:44 1.60192 20.83413 35950 ft 474 kts 284°
2026-04-26 22:44 1.61746 20.77051 35948 ft 474 kts 284°
2026-04-26 22:45 1.63308 20.70650 35951 ft 474 kts 284°
2026-04-26 22:45 1.64871 20.64249 35951 ft 474 kts 284°
2026-04-26 22:46 1.66435 20.57846 35955 ft 474 kts 284°
2026-04-26 22:46 1.68029 20.51449 35952 ft 474 kts 285°
2026-04-26 22:47 1.69366 20.46132 35957 ft 474 kts 284°
2026-04-26 22:47 1.70973 20.39726 35953 ft 474 kts 284°
2026-04-26 22:48 1.72835 20.32282 35950 ft 475 kts 284°
2026-04-26 22:48 1.74177 20.26914 35951 ft 475 kts 284°
2026-04-26 22:49 1.75778 20.20507 35952 ft 475 kts 284°
2026-04-26 22:49 1.77380 20.14098 35953 ft 475 kts 284°
2026-04-26 22:50 1.78973 20.07723 35955 ft 475 kts 284°
2026-04-26 22:50 1.80574 20.01312 35952 ft 475 kts 284°
2026-04-26 22:51 1.82178 19.94891 35957 ft 476 kts 284°
2026-04-26 22:51 1.83758 19.88468 35953 ft 476 kts 284°
2026-04-26 22:52 1.85324 19.82030 35958 ft 476 kts 284°
2026-04-26 22:52 1.86891 19.75596 35954 ft 476 kts 284°
2026-04-26 22:53 1.88461 19.69158 35955 ft 477 kts 284°
2026-04-26 22:53 1.90033 19.62718 35958 ft 477 kts 284°
2026-04-26 22:54 1.91605 19.56275 35958 ft 477 kts 284°
2026-04-26 22:54 1.93167 19.49868 35962 ft 477 kts 284°
2026-04-26 22:55 1.94754 19.43424 35956 ft 477 kts 284°
2026-04-26 22:55 1.96357 19.36989 35963 ft 477 kts 284°
2026-04-26 22:56 1.97957 19.30559 35963 ft 477 kts 284°
2026-04-26 22:56 1.99556 19.24113 35964 ft 477 kts 284°
2026-04-26 22:57 2.01143 19.17708 35967 ft 477 kts 284°
2026-04-26 22:57 2.02715 19.11261 35967 ft 477 kts 284°
2026-04-26 22:58 2.04281 19.04809 35966 ft 477 kts 284°
2026-04-26 22:58 2.05851 18.98347 35964 ft 478 kts 284°
2026-04-26 22:59 2.07422 18.91890 35964 ft 478 kts 284°
2026-04-26 22:59 2.08993 18.85430 35965 ft 478 kts 284°
2026-04-26 23:00 2.10567 18.78960 35965 ft 478 kts 284°
2026-04-26 23:00 2.12131 18.72531 35965 ft 479 kts 284°
2026-04-26 23:01 2.13703 18.66062 35972 ft 479 kts 284°
2026-04-26 23:01 2.15277 18.59588 35967 ft 479 kts 284°
2026-04-26 23:02 2.16853 18.53102 35969 ft 480 kts 284°
2026-04-26 23:02 2.18435 18.46621 35966 ft 480 kts 284°
2026-04-26 23:03 2.20060 18.40152 35962 ft 480 kts 284°
2026-04-26 23:03 2.21690 18.33689 35965 ft 480 kts 284°
2026-04-26 23:04 2.23316 18.27208 35968 ft 480 kts 284°
2026-04-26 23:04 2.24937 18.20737 35967 ft 480 kts 284°
2026-04-26 23:05 2.26562 18.14250 35968 ft 480 kts 284°
2026-04-26 23:05 2.28121 18.07744 35967 ft 481 kts 282°
2026-04-26 23:06 2.29479 18.01245 35965 ft 481 kts 282°
2026-04-26 23:06 2.30841 17.94702 35968 ft 481 kts 282°
2026-04-26 23:07 2.32233 17.88163 35975 ft 481 kts 282°
2026-04-26 23:07 2.33633 17.81627 35972 ft 480 kts 282°
2026-04-26 23:08 2.35034 17.75087 35972 ft 480 kts 283°
2026-04-26 23:08 2.36542 17.68589 35972 ft 480 kts 283°
2026-04-26 23:09 2.38051 17.62084 35974 ft 480 kts 283°
2026-04-26 23:09 2.39511 17.55560 35975 ft 480 kts 283°
2026-04-26 23:10 2.40957 17.49073 35974 ft 480 kts 283°
2026-04-26 23:10 2.42415 17.42558 35978 ft 480 kts 283°
2026-04-26 23:11 2.43879 17.36037 35978 ft 480 kts 283°
2026-04-26 23:11 2.45343 17.29517 35979 ft 480 kts 283°
2026-04-26 23:12 2.46807 17.22996 35980 ft 480 kts 283°
2026-04-26 23:12 2.48262 17.16510 35983 ft 480 kts 283°
2026-04-26 23:13 2.49723 17.09997 35980 ft 480 kts 283°
2026-04-26 23:13 2.51186 17.03475 35984 ft 480 kts 283°
2026-04-26 23:14 2.52645 16.96965 35982 ft 480 kts 283°
2026-04-26 23:14 2.54102 16.90464 35987 ft 479 kts 283°
2026-04-26 23:15 2.55562 16.83952 35985 ft 479 kts 283°
2026-04-26 23:15 2.57010 16.77485 35988 ft 479 kts 283°
2026-04-26 23:16 2.58466 16.70988 35987 ft 479 kts 283°
2026-04-26 23:16 2.59920 16.64495 35989 ft 478 kts 283°
2026-04-26 23:17 2.61372 16.58007 35984 ft 478 kts 283°
2026-04-26 23:17 2.62823 16.51523 35987 ft 477 kts 283°
2026-04-26 23:18 2.64266 16.45077 35984 ft 477 kts 283°
2026-04-26 23:18 2.65714 16.38600 35988 ft 476 kts 283°
2026-04-26 23:19 2.67160 16.32135 35987 ft 476 kts 283°
2026-04-26 23:19 2.68605 16.25674 35981 ft 476 kts 283°
2026-04-26 23:20 2.70048 16.19219 35984 ft 475 kts 283°
2026-04-26 23:20 2.71489 16.12768 35983 ft 475 kts 283°
2026-04-26 23:21 2.72931 16.06312 35991 ft 475 kts 283°
2026-04-26 23:21 2.74365 15.99894 35988 ft 475 kts 283°
2026-04-26 23:22 2.75804 15.93448 35990 ft 474 kts 283°
2026-04-26 23:22 2.77243 15.87000 35988 ft 474 kts 283°
2026-04-26 23:23 2.78679 15.80564 35990 ft 474 kts 283°
2026-04-26 23:23 2.80106 15.74168 35993 ft 474 kts 283°
2026-04-26 23:24 2.81539 15.67740 35994 ft 473 kts 283°
2026-04-26 23:24 2.82972 15.61315 35996 ft 473 kts 283°
2026-04-26 23:25 2.84400 15.54903 35992 ft 473 kts 283°
2026-04-26 23:25 2.85831 15.48480 35995 ft 472 kts 283°
2026-04-26 23:26 2.87258 15.42070 35992 ft 472 kts 283°
2026-04-26 23:26 2.88684 15.35663 35992 ft 472 kts 283°
2026-04-26 23:27 2.90111 15.29251 35991 ft 471 kts 283°
2026-04-26 23:27 2.91526 15.22890 35991 ft 471 kts 283°
2026-04-26 23:28 2.92953 15.16474 35993 ft 472 kts 283°
2026-04-26 23:28 2.94380 15.10058 35992 ft 472 kts 283°
2026-04-26 23:29 2.95806 15.03642 35988 ft 473 kts 283°
2026-04-26 23:29 2.97225 14.97255 35993 ft 473 kts 283°
2026-04-26 23:30 2.98653 14.90828 35995 ft 473 kts 283°
2026-04-26 23:30 3.00082 14.84395 35996 ft 474 kts 283°
2026-04-26 23:31 3.01511 14.77956 35997 ft 474 kts 283°
2026-04-26 23:31 3.02940 14.71518 35994 ft 475 kts 283°
2026-04-26 23:32 3.04372 14.65068 35994 ft 475 kts 283°
2026-04-26 23:32 3.05802 14.58619 35996 ft 475 kts 283°
2026-04-26 23:33 3.07232 14.52171 35995 ft 475 kts 283°
2026-04-26 23:33 3.08419 14.46816 35994 ft 474 kts 283°
2026-04-26 23:34 3.10080 14.39321 35997 ft 474 kts 283°
2026-04-26 23:34 3.11508 14.32876 35992 ft 474 kts 283°
2026-04-26 23:35 3.12694 14.27519 35995 ft 474 kts 283°
2026-04-26 23:35 3.14119 14.21081 35995 ft 474 kts 283°
2026-04-26 23:36 3.15546 14.14638 35992 ft 474 kts 283°
2026-04-26 23:36 3.16975 14.08189 35992 ft 473 kts 283°
2026-04-26 23:37 3.18399 14.01756 35992 ft 473 kts 283°
2026-04-26 23:37 3.19812 13.95370 35994 ft 473 kts 283°
2026-04-26 23:38 3.21234 13.88941 35995 ft 473 kts 283°
2026-04-26 23:38 3.22657 13.82507 35993 ft 473 kts 283°
2026-04-26 23:39 3.24080 13.76070 36002 ft 473 kts 283°
2026-04-26 23:39 3.25502 13.69634 36001 ft 474 kts 283°
2026-04-26 23:40 3.26925 13.63191 36010 ft 474 kts 283°
2026-04-26 23:40 3.28341 13.56775 36007 ft 475 kts 283°
2026-04-26 23:41 3.29771 13.50312 36006 ft 475 kts 283°
2026-04-26 23:41 3.31202 13.43852 36013 ft 476 kts 284°
2026-04-26 23:42 3.32633 13.37386 36013 ft 476 kts 284°
2026-04-26 23:42 3.34779 13.27681 36015 ft 476 kts 284°
2026-04-26 23:43 3.36202 13.21244 36018 ft 476 kts 284°
2026-04-26 23:43 3.37633 13.14770 36024 ft 476 kts 284°
2026-04-26 23:44 3.39064 13.08291 36027 ft 476 kts 284°
2026-04-26 23:44 3.40495 13.01813 36025 ft 476 kts 284°
2026-04-26 23:45 3.41922 12.95348 36026 ft 475 kts 284°
2026-04-26 23:45 3.43348 12.88888 36032 ft 475 kts 284°
2026-04-26 23:46 3.44772 12.82432 36032 ft 475 kts 284°
2026-04-26 23:46 3.46185 12.76023 36037 ft 474 kts 284°
2026-04-26 23:47 3.47606 12.69577 36037 ft 474 kts 284°
2026-04-26 23:47 3.49026 12.63129 36038 ft 474 kts 284°
2026-04-26 23:48 3.50441 12.56692 36044 ft 473 kts 284°
2026-04-26 23:48 3.51855 12.50257 36044 ft 473 kts 284°
2026-04-26 23:49 3.53270 12.43817 36046 ft 473 kts 284°
2026-04-26 23:49 3.54684 12.37379 36046 ft 473 kts 284°
2026-04-26 23:50 3.56087 12.30990 36052 ft 473 kts 284°
2026-04-26 23:50 3.57500 12.24551 36052 ft 473 kts 284°
2026-04-26 23:51 3.58911 12.18118 36056 ft 473 kts 284°
2026-04-26 23:51 3.60324 12.11675 36058 ft 473 kts 284°
2026-04-26 23:52 3.61737 12.05230 36057 ft 473 kts 284°
2026-04-26 23:52 3.63149 11.98789 36060 ft 474 kts 284°
2026-04-26 23:53 3.64552 11.92387 36063 ft 474 kts 284°
2026-04-26 23:53 3.65965 11.85932 36068 ft 474 kts 284°
2026-04-26 23:54 3.67379 11.79474 36067 ft 474 kts 284°
2026-04-26 23:54 3.68793 11.73011 36074 ft 475 kts 284°
2026-04-26 23:55 3.70198 11.66590 36074 ft 475 kts 283°
2026-04-26 23:55 3.71613 11.60120 36076 ft 475 kts 283°
2026-04-26 23:56 3.72968 11.53647 36078 ft 476 kts 281°
2026-04-26 23:56 3.73976 11.47078 36075 ft 477 kts 279°
2026-04-26 23:57 3.74890 11.40497 36076 ft 477 kts 279°
2026-04-26 23:57 3.75832 11.33916 36077 ft 477 kts 279°
2026-04-26 23:58 3.76798 11.27373 36062 ft 478 kts 279°
2026-04-26 23:58 3.77778 11.20795 36062 ft 478 kts 279°
2026-04-26 23:59 3.78761 11.14196 36059 ft 479 kts 279°
2026-04-26 23:59 3.79742 11.07593 36061 ft 479 kts 279°
2026-04-27 00:00 3.80720 11.00999 36051 ft 479 kts 279°
2026-04-27 00:00 3.81699 10.94397 36053 ft 479 kts 279°
2026-04-27 00:01 3.82680 10.87784 36049 ft 480 kts 279°
2026-04-27 00:01 3.83653 10.81214 36032 ft 479 kts 279°
2026-04-27 00:02 3.84632 10.74602 36031 ft 479 kts 279°
2026-04-27 00:02 3.85609 10.68001 36020 ft 479 kts 279°
2026-04-27 00:03 3.86586 10.61394 36018 ft 479 kts 279°
2026-04-27 00:03 3.87555 10.54838 36009 ft 479 kts 279°
2026-04-27 00:04 3.88530 10.48242 36014 ft 479 kts 279°
2026-04-27 00:04 3.89504 10.41645 35999 ft 479 kts 279°
2026-04-27 00:05 3.90480 10.35032 36000 ft 479 kts 279°
2026-04-27 00:05 3.91454 10.28431 36002 ft 479 kts 279°
2026-04-27 00:06 3.92420 10.21879 35995 ft 480 kts 279°
2026-04-27 00:06 3.93395 10.15261 35990 ft 480 kts 279°
2026-04-27 00:07 3.94368 10.08641 35984 ft 480 kts 279°
2026-04-27 00:07 3.95338 10.02025 35976 ft 480 kts 279°
2026-04-27 00:08 3.96303 9.95444 35959 ft 480 kts 279°
2026-04-27 00:08 3.97273 9.88825 35949 ft 480 kts 279°
2026-04-27 00:09 3.98243 9.82206 35940 ft 480 kts 279°
2026-04-27 00:09 3.99212 9.75586 35940 ft 480 kts 279°
2026-04-27 00:10 3.99908 9.68931 35942 ft 481 kts 274°
2026-04-27 00:10 4.00319 9.62247 35939 ft 481 kts 274°
2026-04-27 00:11 4.00721 9.55554 35945 ft 481 kts 274°
2026-04-27 00:11 4.01162 9.48862 35948 ft 481 kts 274°
2026-04-27 00:12 4.01621 9.42215 35946 ft 481 kts 275°
2026-04-27 00:12 4.02086 9.35534 35946 ft 481 kts 274°
2026-04-27 00:13 4.02551 9.28830 35944 ft 482 kts 274°
2026-04-27 00:13 4.03013 9.22133 35936 ft 482 kts 274°
2026-04-27 00:14 4.03475 9.15434 35935 ft 482 kts 274°
2026-04-27 00:14 4.03936 9.08730 35914 ft 482 kts 274°
2026-04-27 00:15 4.04396 9.02026 35928 ft 482 kts 274°
2026-04-27 00:15 4.04853 8.95377 35921 ft 481 kts 274°
2026-04-27 00:16 4.05311 8.88691 35925 ft 481 kts 274°
2026-04-27 00:16 4.05771 8.81973 35928 ft 480 kts 274°
2026-04-27 00:17 4.06225 8.75338 35924 ft 480 kts 274°
2026-04-27 00:17 4.06681 8.68662 35937 ft 476 kts 274°
2026-04-27 00:18 4.07126 8.62138 35911 ft 466 kts 274°
2026-04-27 00:18 4.07568 8.55646 35911 ft 467 kts 274°
2026-04-27 00:19 4.08008 8.49180 35908 ft 468 kts 274°
2026-04-27 00:19 4.08451 8.42669 35905 ft 469 kts 274°
2026-04-27 00:20 4.08895 8.36130 35905 ft 470 kts 274°
2026-04-27 00:20 4.09340 8.29571 35904 ft 471 kts 274°
2026-04-27 00:21 4.09781 8.23064 35906 ft 471 kts 274°
2026-04-27 00:21 4.10224 8.16509 35904 ft 472 kts 274°
2026-04-27 00:22 4.10667 8.09953 35900 ft 472 kts 274°
2026-04-27 00:22 4.11109 8.03398 35904 ft 472 kts 274°
2026-04-27 00:23 4.11552 7.96838 35903 ft 471 kts 274°
2026-04-27 00:23 4.11994 7.90285 35903 ft 471 kts 275°
2026-04-27 00:24 4.13020 7.84952 35897 ft 469 kts 290°
2026-04-27 00:24 4.15491 7.78913 35899 ft 468 kts 294°
2026-04-27 00:25 4.18450 7.71929 35899 ft 468 kts 293°
2026-04-27 00:25 4.20526 7.66920 35901 ft 467 kts 293°
2026-04-27 00:26 4.22993 7.60900 35903 ft 467 kts 293°
2026-04-27 00:26 4.25461 7.54870 35904 ft 467 kts 293°
2026-04-27 00:27 4.27923 7.48857 35904 ft 467 kts 293°
2026-04-27 00:27 4.30391 7.42832 35904 ft 467 kts 293°
2026-04-27 00:28 4.32852 7.36815 35907 ft 467 kts 293°
2026-04-27 00:28 4.35299 7.30783 35907 ft 467 kts 293°
2026-04-27 00:29 4.37734 7.24763 35905 ft 466 kts 293°
2026-04-27 00:29 4.40160 7.18772 35903 ft 466 kts 293°
2026-04-27 00:30 4.42605 7.12734 35904 ft 467 kts 293°
2026-04-27 00:30 4.45051 7.06693 35903 ft 467 kts 293°
2026-04-27 00:31 4.47477 7.00699 35904 ft 467 kts 293°
2026-04-27 00:31 4.49920 6.94662 35905 ft 467 kts 293°
2026-04-27 00:32 4.52366 6.88624 35903 ft 467 kts 293°
2026-04-27 00:32 4.54824 6.82599 35909 ft 467 kts 292°
2026-04-27 00:33 4.57281 6.76573 35904 ft 467 kts 292°
2026-04-27 00:33 4.59738 6.70539 35903 ft 467 kts 292°
2026-04-27 00:34 4.62176 6.64558 35906 ft 466 kts 292°
2026-04-27 00:34 4.64651 6.58534 35907 ft 466 kts 293°
2026-04-27 00:35 4.67118 6.52533 35907 ft 466 kts 293°
2026-04-27 00:35 4.69586 6.46521 35906 ft 466 kts 293°
2026-04-27 00:36 4.72035 6.40550 35909 ft 465 kts 293°
2026-04-27 00:36 4.74496 6.34549 35912 ft 465 kts 293°
2026-04-27 00:37 4.76955 6.28548 35910 ft 465 kts 293°
2026-04-27 00:37 4.79418 6.22539 35912 ft 465 kts 293°
2026-04-27 00:38 4.81876 6.16538 35912 ft 465 kts 293°
2026-04-27 00:38 4.84312 6.10531 35913 ft 466 kts 292°
2026-04-27 00:39 4.86725 6.04505 35915 ft 466 kts 292°
2026-04-27 00:39 4.89142 5.98469 35915 ft 466 kts 292°
2026-04-27 00:40 4.91562 5.92432 35919 ft 466 kts 292°
2026-04-27 00:40 4.93969 5.86433 35918 ft 466 kts 292°
2026-04-27 00:41 4.96389 5.80397 35918 ft 466 kts 292°
2026-04-27 00:41 4.98813 5.74351 35918 ft 466 kts 292°
2026-04-27 00:42 5.01232 5.68313 35922 ft 466 kts 292°
2026-04-27 00:42 5.03631 5.62324 35914 ft 465 kts 292°
2026-04-27 00:43 5.06053 5.56309 35916 ft 465 kts 292°
2026-04-27 00:43 5.08496 5.50275 35917 ft 464 kts 292°
2026-04-27 00:44 5.10920 5.44282 35914 ft 463 kts 292°
2026-04-27 00:44 5.13326 5.38329 35914 ft 463 kts 292°
2026-04-27 00:45 5.15743 5.32340 35914 ft 462 kts 292°
2026-04-27 00:45 5.18154 5.26367 35916 ft 462 kts 292°
2026-04-27 00:46 5.20564 5.20394 35915 ft 461 kts 292°
2026-04-27 00:46 5.22968 5.14434 35915 ft 460 kts 292°
2026-04-27 00:47 5.25371 5.08473 35913 ft 460 kts 292°
2026-04-27 00:47 5.27770 5.02522 35913 ft 460 kts 292°
2026-04-27 00:48 5.30154 4.96607 35915 ft 460 kts 292°
2026-04-27 00:48 5.32550 4.90658 35915 ft 460 kts 292°
2026-04-27 00:49 5.34948 4.84703 35913 ft 460 kts 292°
2026-04-27 00:49 5.37346 4.78745 35914 ft 460 kts 292°
2026-04-27 00:50 5.40940 4.69814 35911 ft 460 kts 292°
2026-04-27 00:51 5.43335 4.63859 35912 ft 460 kts 292°
2026-04-27 00:51 5.45714 4.57930 35911 ft 460 kts 292°
2026-04-27 00:52 5.48099 4.51965 35913 ft 460 kts 292°
2026-04-27 00:52 5.50482 4.46002 35908 ft 460 kts 292°
2026-04-27 00:53 5.52862 4.40044 35905 ft 460 kts 292°
2026-04-27 00:53 5.55245 4.34082 35907 ft 459 kts 292°
2026-04-27 00:54 5.57620 4.28135 35913 ft 459 kts 292°
2026-04-27 00:54 5.59995 4.22186 35908 ft 458 kts 292°
2026-04-27 00:55 5.62355 4.16274 35914 ft 458 kts 292°
2026-04-27 00:55 5.64724 4.10335 35910 ft 457 kts 292°
2026-04-27 00:56 5.67088 4.04407 35911 ft 457 kts 292°
2026-04-27 00:56 5.69452 3.98477 35909 ft 457 kts 292°
2026-04-27 00:57 5.71809 3.92564 35909 ft 457 kts 292°
2026-04-27 00:57 5.74168 3.86643 35915 ft 457 kts 292°
2026-04-27 00:58 5.76573 3.80738 35913 ft 457 kts 294°
2026-04-27 00:58 5.79101 3.74879 35906 ft 457 kts 294°
2026-04-27 00:59 5.81642 3.69015 35907 ft 458 kts 294°
2026-04-27 00:59 5.84159 3.63164 35910 ft 459 kts 294°
2026-04-27 01:00 5.86686 3.57262 35910 ft 460 kts 294°
2026-04-27 01:00 5.89218 3.51341 35915 ft 461 kts 293°
2026-04-27 01:01 5.91752 3.45417 35913 ft 462 kts 293°
2026-04-27 01:01 5.94290 3.39479 35911 ft 462 kts 293°
2026-04-27 01:02 5.96813 3.33577 35911 ft 462 kts 293°
2026-04-27 01:02 5.99351 3.27636 35909 ft 462 kts 294°
2026-04-27 01:03 6.01884 3.21707 35911 ft 462 kts 293°
2026-04-27 01:03 6.04419 3.15770 35908 ft 462 kts 293°
2026-04-27 01:04 6.06949 3.09842 35916 ft 461 kts 293°
2026-04-27 01:04 6.09476 3.03920 35910 ft 461 kts 294°
2026-04-27 01:05 6.12000 2.98002 35913 ft 460 kts 293°
2026-04-27 01:05 6.14501 2.92134 35910 ft 459 kts 294°
2026-04-27 01:06 6.17011 2.86247 35912 ft 458 kts 293°
2026-04-27 01:06 6.19517 2.80363 35911 ft 457 kts 294°
2026-04-27 01:07 6.22004 2.74521 35922 ft 456 kts 293°
2026-04-27 01:07 6.24416 2.68604 35916 ft 456 kts 292°
2026-04-27 01:08 6.26786 2.62674 35908 ft 456 kts 292°
2026-04-27 01:08 6.29154 2.56781 35924 ft 457 kts 292°
2026-04-27 01:09 6.31551 2.50836 35926 ft 458 kts 292°
2026-04-27 01:09 6.33951 2.44886 35924 ft 460 kts 292°
2026-04-27 01:10 6.35581 2.38721 35927 ft 460 kts 275°
2026-04-27 01:10 6.35246 2.32292 35934 ft 461 kts 261°
2026-04-27 01:11 6.34179 2.25952 35911 ft 463 kts 259°
2026-04-27 01:11 6.33284 2.20625 35929 ft 465 kts 260°
2026-04-27 01:12 6.32082 2.13121 35926 ft 468 kts 260°
2026-04-27 01:12 6.31235 2.07726 35924 ft 470 kts 260°
2026-04-27 01:13 6.30212 2.01208 35926 ft 472 kts 260°
2026-04-27 01:13 6.29183 1.94671 35923 ft 473 kts 260°
2026-04-27 01:14 6.28158 1.88175 35921 ft 473 kts 260°
2026-04-27 01:14 6.27127 1.81640 35708 ft 476 kts 260°
2026-04-27 01:14 6.26604 1.78326 35082 ft 478 kts 260°
2026-04-27 01:15 6.26081 1.75026 34365 ft 479 kts 260°
2026-04-27 01:15 6.25554 1.71717 33635 ft 481 kts 260°
2026-04-27 01:15 6.25022 1.68386 33009 ft 479 kts 260°
2026-04-27 01:15 6.24505 1.65140 32505 ft 474 kts 260°
2026-04-27 01:16 6.23984 1.61875 31997 ft 470 kts 260°
2026-04-27 01:16 6.23469 1.58643 31500 ft 465 kts 260°
2026-04-27 01:16 6.22958 1.55443 31050 ft 459 kts 261°
2026-04-27 01:16 6.22463 1.52338 30800 ft 449 kts 261°
2026-04-27 01:17 6.21970 1.49246 30288 ft 446 kts 261°
2026-04-27 01:17 6.21479 1.46171 29805 ft 443 kts 261°
2026-04-27 01:17 6.20992 1.43118 29254 ft 438 kts 261°
2026-04-27 01:17 6.20511 1.40108 28732 ft 434 kts 261°
2026-04-27 01:18 6.20040 1.37159 28230 ft 429 kts 261°
2026-04-27 01:18 6.19566 1.34195 27734 ft 425 kts 261°
2026-04-27 01:18 6.19104 1.31303 27249 ft 421 kts 261°
2026-04-27 01:18 6.18633 1.28399 26761 ft 417 kts 260°
2026-04-27 01:19 6.17907 1.25577 26270 ft 415 kts 250°
2026-04-27 01:19 6.16806 1.22939 25808 ft 411 kts 247°
2026-04-27 01:19 6.15637 1.20307 25304 ft 409 kts 247°
2026-04-27 01:19 6.14484 1.17723 24822 ft 407 kts 247°
2026-04-27 01:20 6.13334 1.15118 24334 ft 405 kts 248°
2026-04-27 01:20 6.12206 1.12534 23842 ft 403 kts 248°
2026-04-27 01:20 6.11092 1.09960 23333 ft 401 kts 248°
2026-04-27 01:20 6.09998 1.07421 22806 ft 398 kts 248°
2026-04-27 01:21 6.08899 1.04872 22318 ft 394 kts 248°
2026-04-27 01:21 6.07821 1.02371 21840 ft 391 kts 248°
2026-04-27 01:21 6.06742 0.99869 21372 ft 388 kts 248°
2026-04-27 01:21 6.05737 0.97361 20912 ft 384 kts 251°
2026-04-27 01:22 6.04807 0.94852 20460 ft 382 kts 251°
2026-04-27 01:22 6.03897 0.92356 20016 ft 379 kts 251°
2026-04-27 01:22 6.02989 0.89877 19578 ft 377 kts 251°
2026-04-27 01:22 6.02075 0.87410 19131 ft 375 kts 251°
2026-04-27 01:23 6.01172 0.84991 18703 ft 374 kts 250°
2026-04-27 01:23 6.00254 0.82543 18254 ft 373 kts 250°
2026-04-27 01:23 5.99338 0.80103 17766 ft 371 kts 250°
2026-04-27 01:23 5.98484 0.77660 17307 ft 368 kts 256°
2026-04-27 01:24 5.97951 0.75157 16885 ft 365 kts 262°
2026-04-27 01:24 5.97568 0.72649 16463 ft 362 kts 263°
2026-04-27 01:24 5.97226 0.70183 16041 ft 359 kts 263°
2026-04-27 01:24 5.96875 0.67700 15634 ft 357 kts 262°
2026-04-27 01:25 5.96511 0.65241 15229 ft 355 kts 262°
2026-04-27 01:25 5.96134 0.62788 14828 ft 353 kts 262°
2026-04-27 01:25 5.95750 0.60358 14427 ft 351 kts 261°
2026-04-27 01:25 5.95365 0.57960 14032 ft 350 kts 261°
2026-04-27 01:26 5.94974 0.55545 13599 ft 349 kts 261°
2026-04-27 01:26 5.94580 0.53124 13158 ft 348 kts 261°
2026-04-27 01:26 5.94194 0.50759 12741 ft 346 kts 261°
2026-04-27 01:26 5.93804 0.48373 12330 ft 344 kts 261°
2026-04-27 01:27 5.93416 0.45994 11919 ft 343 kts 261°
2026-04-27 01:27 5.93034 0.43656 11525 ft 342 kts 261°
2026-04-27 01:27 5.92649 0.41300 11126 ft 341 kts 260°
2026-04-27 01:27 5.92265 0.38950 10720 ft 340 kts 260°
2026-04-27 01:28 5.91880 0.36600 10339 ft 339 kts 261°
2026-04-27 01:28 5.91507 0.34318 10179 ft 330 kts 261°
2026-04-27 01:28 5.91138 0.32057 10028 ft 321 kts 260°
2026-04-27 01:28 5.90782 0.29880 9829 ft 316 kts 260°
2026-04-27 01:29 5.90424 0.27694 9481 ft 315 kts 260°
2026-04-27 01:29 5.90072 0.25545 9155 ft 314 kts 260°
2026-04-27 01:29 5.89719 0.23387 8803 ft 313 kts 260°
2026-04-27 01:29 5.89364 0.21218 8397 ft 315 kts 260°
2026-04-27 01:30 5.89009 0.19042 7993 ft 316 kts 260°
2026-04-27 01:30 5.88656 0.16885 7593 ft 314 kts 260°
2026-04-27 01:30 5.88304 0.14729 7179 ft 307 kts 260°
2026-04-27 01:30 5.87960 0.12623 6784 ft 300 kts 260°
2026-04-27 01:31 5.87628 0.10591 6404 ft 293 kts 260°
2026-04-27 01:31 5.87303 0.08603 6036 ft 288 kts 260°
2026-04-27 01:31 5.86978 0.06616 5669 ft 287 kts 259°
2026-04-27 01:31 5.86654 0.04636 5304 ft 285 kts 259°
2026-04-27 01:32 5.86337 0.02700 4983 ft 282 kts 259°
2026-04-27 01:32 5.86024 0.00784 4752 ft 273 kts 259°
2026-04-27 01:32 5.85718 -0.01081 4543 ft 269 kts 259°
2026-04-27 01:32 5.85420 -0.02902 4325 ft 265 kts 259°
2026-04-27 01:33 5.85124 -0.04704 4138 ft 255 kts 258°
2026-04-27 01:33 5.84495 -0.06312 3888 ft 241 kts 229°
2026-04-27 01:33 5.83273 -0.07354 3713 ft 228 kts 208°
2026-04-27 01:33 5.81856 -0.07969 3522 ft 217 kts 199°
2026-04-27 01:34 5.80466 -0.08489 3345 ft 208 kts 200°
2026-04-27 01:34 5.79147 -0.09014 3190 ft 198 kts 201°
2026-04-27 01:34 5.77912 -0.09521 3021 ft 189 kts 201°
2026-04-27 01:34 5.76712 -0.10018 2848 ft 181 kts 201°
2026-04-27 01:35 5.75577 -0.10488 2692 ft 174 kts 201°
2026-04-27 01:35 5.74478 -0.10943 2533 ft 166 kts 201°
2026-04-27 01:35 5.73420 -0.11381 2416 ft 165 kts 201°
2026-04-27 01:35 5.72371 -0.11815 2285 ft 163 kts 201°
2026-04-27 01:36 5.71324 -0.12249 2190 ft 161 kts 202°
2026-04-27 01:36 5.70276 -0.12683 1996 ft 160 kts 201°
2026-04-27 01:36 5.69295 -0.13089 1836 ft 149 kts 202°
2026-04-27 01:36 5.68323 -0.13492 1622 ft 150 kts 202°
2026-04-27 01:37 5.67364 -0.13889 1417 ft 148 kts 202°
2026-04-27 01:37 5.66437 -0.14273 1231 ft 145 kts 202°
2026-04-27 01:37 5.65500 -0.14661 1048 ft 146 kts 202°
2026-04-27 01:37 5.64553 -0.15053 850 ft 147 kts 203°
2026-04-27 01:38 5.63606 -0.15445 675 ft 146 kts 204°
2026-04-27 01:38 5.62667 -0.15830 469 ft 145 kts 204°
2026-04-27 01:38 5.61744 -0.16216 289 ft 145 kts 205°
2026-04-27 01:38 5.60863 -0.16593 222 ft 119 kts 200°
2026-04-27 01:39 5.60302 -0.16816 216 ft 56 kts 202°
2026-04-27 01:39 5.59992 -0.16941 211 ft 47 kts 202°
2026-04-27 01:39 5.59703 -0.17061 206 ft 44 kts 202°
2026-04-27 01:39 5.59427 -0.17174 201 ft 41 kts 201°
2026-04-27 01:40 5.59302 -0.17226 203 ft 13 kts 202°
2026-04-27 01:40 5.59218 -0.17264 195 ft 13 kts 211°
2026-04-27 01:40 5.59180 -0.17342 191 ft 13 kts 281°
2026-04-27 01:40 5.59221 -0.17421 200 ft 13 kts 318°
2026-04-27 01:41 5.59303 -0.17433 199 ft 12 kts 15°
2026-04-27 01:41 5.59382 -0.17402 203 ft 12 kts 21°
2026-04-27 01:41 5.59458 -0.17370 204 ft 12 kts 22°
2026-04-27 01:41 5.59532 -0.17339 211 ft 11 kts 22°
2026-04-27 01:42 5.59605 -0.17309 212 ft 11 kts 22°
2026-04-27 01:42 5.59675 -0.17280 206 ft 11 kts 22°
2026-04-27 01:42 5.59743 -0.17252 208 ft 11 kts 22°
2026-04-27 01:42 5.59810 -0.17225 206 ft 10 kts 22°
2026-04-27 01:43 5.59875 -0.17198 208 ft 10 kts 22°
2026-04-27 01:43 5.59937 -0.17172 208 ft 9 kts 22°
2026-04-27 01:43 5.59987 -0.17151 206 ft 8 kts 22°
2026-04-27 01:43 5.60036 -0.17131 209 ft 7 kts 22°
2026-04-27 01:44 5.60070 -0.17117 211 ft 5 kts 22°
2026-04-27 01:44 5.60102 -0.17105 215 ft 5 kts 13°
2026-04-27 01:44 5.60131 -0.17119 210 ft 5 kts 315°
2026-04-27 01:44 5.60145 -0.17149 208 ft 5 kts 291°
2026-04-27 01:45 5.60154 -0.17171 214 ft 2 kts 291°
2026-04-27 01:45 5.60159 -0.17183 216 ft 1 kts 292°
2026-04-27 01:45 5.60162 -0.17190 214 ft 1 kts 292°
2026-04-27 01:45 5.60163 -0.17193 213 ft 0 kts 292°